This demonstration page uses our WeatherBlox Daily Observations layout. Learn more.

Left ArrowRight Arrow

Hourly Observations for May 21, 2020

Temp ( °F °C ) Dew Point ( °F °C ) Humidity (%) Winds ( mph kmh ) Pressure ( in mb ) Visibility ( mi km ) Precip ( " mm )
12:20 am 00:20 Cloudy 63 17.2 57 13.9 81 81 ESE 13 20 29.92 1013 10 16.0934 0 0
12:44 am 00:44 Cloudy 63 17.2 57 13.9 81 81 ESE 13 20 29.92 1013 10 16.0934 0 0
12:54 am 00:54 Cloudy 63 17.2 57 13.9 81 81 SE 16 26 29.92 1013 10 16.0934 0 0
1:35 am 01:35 Cloudy 63 17.2 57 13.9 81 81 SE 12 19 29.92 1013 10 16.0934 0 0
1:54 am 01:54 Cloudy 63 17.2 57 13.9 81 81 SE 12 19 29.93 1014 10 16.0934 0 0
2:18 am 02:18 Cloudy 63 17.2 57 13.9 81 81 SE 12 19 29.92 1013 10 16.0934 0 0
2:54 am 02:54 Cloudy 63 17.2 57 13.9 81 81 SSE 9 15 29.93 1014 10 16.0934 0 0
3:11 am 03:11 Cloudy 63 17.2 57 13.9 81 81 SSE 7 11 29.94 1014 10 16.0934 0 0
3:24 am 03:24 Cloudy 63 17.2 57 13.9 81 81 SE 7 11 29.94 1014 10 16.0934 0 0
3:54 am 03:54 Cloudy 62 16.7 57 13.9 84 84 SE 5 7 29.95 1014 10 16.0934 0 0
4:12 am 04:12 Cloudy 62 16.7 57 13.9 84 84 SE 7 11 29.96 1015 10 16.0934 0 0
4:54 am 04:54 Cloudy 62 16.7 58 14.4 86 86 E 7 11 29.95 1014 10 16.0934 0 0
5:25 am 05:25 Cloudy 62 16.7 58 14.4 86 86 ENE 6 9 29.96 1015 10 16.0934 0 0
5:54 am 05:54 Cloudy 61 16.1 58 14.4 90 90 ENE 7 11 29.98 1015 10 16.0934 0 0
6:17 am 06:17 Cloudy 61 16.1 57 13.9 87 87 E 6 9 29.97 1015 10 16.0934 0 0
6:32 am 06:32 Cloudy 61 16.1 57 13.9 87 87 E 9 15 29.98 1015 10 16.0934 0 0
6:39 am 06:39 Cloudy 61 16.1 57 13.9 87 87 ESE 8 13 29.98 1015 10 16.0934 0 0
6:54 am 06:54 Cloudy 61 16.1 57 13.9 87 87 ESE 8 13 29.98 1015 9 14.48406 0 0
7:54 am 07:54 Cloudy 62 16.7 57 13.9 84 84 ESE 7 11 29.95 1014 10 16.0934 0 0
8:54 am 08:54 Cloudy 63 17.2 57 13.9 81 81 SE 13 20 29.94 1014 10 16.0934 0 0
9:45 am 09:45 Cloudy 64 17.8 58 14.4 81 81 SSE 14 22 29.94 1014 10 16.0934 0 0
9:54 am 09:54 Cloudy 65 18.3 57 13.9 76 76 SE 14 22 29.94 1014 10 16.0934 0 0
10:20 am 10:20 Cloudy 67 19.4 58 14.4 73 73 SE 15 24 29.92 1013 10 16.0934 0 0
10:54 am 10:54 Mostly Cloudy 68 20 58 14.4 70 70 SSE 15 24 29.93 1014 10 16.0934 0 0
11:07 am 11:07 Mostly Cloudy 68 20 57 13.9 68 68 ESE 15 24 29.92 1013 10 16.0934 0 0
11:54 am 11:54 Cloudy 68 20 57 13.9 68 68 SE 13 20 29.93 1014 10 16.0934 0 0
12:41 pm 12:41 Cloudy 69 20.6 57 13.9 66 66 SE 12 19 29.91 1013 10 16.0934 0 0
12:54 pm 12:54 Cloudy 69 20.6 57 13.9 66 66 SE 13 20 29.93 1013 10 16.0934 0 0
1:54 pm 13:54 Cloudy 71 21.7 57 13.9 61 61 SE 12 19 29.89 1012 10 16.0934 0 0
2:54 pm 14:54 Cloudy 74 23.3 57 13.9 56 56 SSE 10 17 29.89 1012 10 16.0934 0 0
3:54 pm 15:54 Mostly Cloudy 73 22.8 56 13.3 55 55 ESE 8 13 29.88 1012 10 16.0934 0 0
4:54 pm 16:54 Cloudy 73 22.8 56 13.3 55 55 SSE 6 9 29.86 1011 10 16.0934 0 0
5:54 pm 17:54 Cloudy 72 22.2 57 13.9 59 59 ESE 13 20 29.86 1011 10 16.0934 0 0
6:54 pm 18:54 Mostly Cloudy 71 21.7 56 13.3 59 59 ESE 12 19 29.88 1012 10 16.0934 0 0
7:54 pm 19:54 Cloudy with Light Rain 68 20 58 14.4 70 70 SSE 7 11 29.9 1013 7 11.26538 0.001 0.001
8:54 pm 20:54 Cloudy with Rain 63 17.2 60 15.6 90 90 S 8 13 29.91 1013 5 8.0467 0.12 3.048
9:54 pm 21:54 Cloudy 64 17.8 60 15.6 87 87 SSE 8 13 29.91 1013 10 16.0934 0.02 0.508
10:54 pm 22:54 Cloudy with Heavy Rain 63 17.2 60 15.6 90 90 SSE 20 31 29.88 1012 3 4.82802 0.04 1.016
11:54 pm 23:54 Cloudy with Light Rain 63 17.2 60 15.6 90 90 SSE 12 19 29.9 1013 8 12.87472 0.06 1.524

Powered by AerisWeather